Location: Bli��� Lhota
(48.7570°N, 14.0120°E)
Time: 03:44:40
(UTC+00:00)

Cosmos 1844 Rocket - Pass Details

Date: 18 September 2020
Orbit: 823 x 846 km, 71.0° (Epoch: 29 October)

Event Time Altitude Azimuth Distance (km) Brightness Sun altitude
Rises 17:56:50 0° 159° (SSE) 3,345 5.5 -8.5°
Reaches altitude 10° 17:59:56 10° 142° (SE) 2,420 4.6 -9.0°
Maximum altitude 18:03:39 19° 100° (E) 1,892 3.9 -9.6°
Drops below altitude 10° 18:07:23 10° 57° (ENE) 2,438 4.7 -10.2°
Sets 18:10:31 0° 40° (NE) 3,381 5.6 -10.7°
